sat.trackr.live / text

‹ back to catalog

ONEWEB-0057

NORAD 45160 · 2020-008AF

PAYLOAD ACTIVE UNKNOWN

§ Identity

Operator
Country
UK
Launch date
2020-02-06
Launch site
TYMSC
Launch vehicle
Mass (kg)
RCS (m²)

Purposes: comms

External: N2YO · Heavens-Above · Gunter

§ Orbital elements

Epoch: 2026-09-11T21:21:05.893920Z

Period
109.89 min
Inclination
87.8895°
Eccentricity
0.0002055
Mean motion
13.10369857 rev/d
Perigee alt
1,220.2 km
Apogee alt
1,223.3 km
Semi-major
7,599.9 km
B*
7.4964e-4
RAAN
19.0110°
Arg perigee
113.6846°
Mean anomaly
246.4497°
Rev number
31,970

§ Raw data

ONEWEB-00571 45160U 20008AF  26254.88965155  .00000274  00000+0  74964-3 0  99972 45160  87.8895  19.0110 0002055 113.6846 246.4497 13.10369857319705

JSON: /api/v1/satellites/45160 · /tle

For live sub-satellite position, see the globe view (requires WebGL).

§ Visibility from observer

Set your observer location to see the next 7 days of passes ≥ 10°. The values pass through the URL so the page stays shareable.

No JS? Fill the form by hand. The geolocation button needs JavaScript.